User: anonymous   Login
Location: Namasale
(1.5000°N, 32.6167°E)
Time: 01:49:25
(UTC+00:00)
Language:

Vanguard 2 - Orbit

View from above orbital plane
View from above orbital plane
View from above satellite
View from above satellite

Ground track
Ground track

The orbit data is extracted from the following two-line orbital elements,

1 00011U 59001A   21110.58795331  .00000260  00000-0  12380-3 0  9998
2 00011  32.8725 342.2014 1468237 185.4668 172.8090 11.85789598311447
Epoch (UTC): 20 April 2021 14:06:39
Eccentricity: 0.1468237
inclination: 32.8725°
perigee height: 552 km
apogee height: 2938 km
right ascension of ascending node: 342.2014°
argument of perigee: 185.4668°
revolutions per day: 11.85789598
mean anomaly at epoch: 172.8090°
orbit number at epoch: 31144

The dashed part of the orbit path shows where the satellite is in the earth's shadow,  

DLR